PSLV R/B

Satellite information

Favourite Embed

Satellite Type and Status

ROCKET BODYIN ORBIT

Key statistics

Satellite PSLV R/B at a glance.

Uptime

3206

Days in orbit

Revolutions

≈ 14.6

Per day

Orbit

SSO

Sun Synchronous Orbit

Inclination

97.9

Latest

Satellite identification and parameters

Extended collection of information and parameters for PSLV R/B.

Object identification

Identified? True

Debris? False

Object name: PSLV R/B

International designator: 2016-059J

Object number (NORAD): 41791

Object ID (CCSDS): 41791

Country: INDIA (IND)

Current information (Y/N): Y

RCS size: LARGE

Orbital parameters

Period: 98.414 minutes

Inclination: 97.8521 deg

SMA: 7060.976 km

Apoapsis: 710.884 km

Periapsis: 654.797 km

RAAN: 210.4958 deg

Eccentricy: 0.0039716

Argument of periapsis: 300.5748 deg

Mean anomaly: 59.1539 deg

Mean motion: 14.63206724 rev/day

Mean motion (dot): 0.00000332 rev/day2

B* drag term: 0.00007272 1/REarth

Two-line elements (TLE)

Creation date: July 6, 2025, 6:05 p.m.

Reference frame: TEME

Reference center: EARTH

Epoch: July 6, 2025, 1:43 p.m. UTC

TLE line 0: 0 PSLV R/B

TLE line 1: 1 41791U 16059J 25187.57211114 .00000332 00000-0 72720-4 0 9998

TLE line 2: 2 41791 97.8521 210.4958 0039716 300.5748 59.1539 14.63206724468126

Live tracking on map

Real-time ground track for satellite PSLV R/B.

In-orbit conjunctions

A list of the most updated potential collisions computed for object PSLV R/B.

Target Orbit TCA Probability of collision Miss distance Type
PSLV DEB SSO 2025-05-19 22:11:02 0.0001934395 570.0 (m) DEBRIS
DMSP 5D-2 F6 DEB SSO 2024-11-08 08:50:18 0.0001630526 947.0 (m) DEBRIS
IRIDIUM 33 DEB LEO 2024-10-27 09:15:25 0.0001512626 486.0 (m) DEBRIS

Associated space launch

ScatSat-1 is a microsatellite of 371 kg and a mission life of 5 years. It is tasked to provide weather forecasting, cyclone prediction, and tracking services to India. This launch will also carry 7 other satellites, the 117kg Alsat-2B, the 103kg Alsat-1B & the 7kg Alsat-1N earth observation satellites for Algerian Space Agency, the 44kg Pathfinder-1 earth imager for Blacksky, the 8kg CanX-7 deorbiter for UTIAS Space Flight Laboratory, the 10kg Pratham Ionospheric Tomographer for IIT Bombay and the 5.25kg PiSat earth imager for PES University.

PSLV R/B was lifted into orbit during the mission ‘PSLV | SCATSat-1’, on board a PSLV space rocket.

The launch took place on Sept. 26, 2016, 3:42 a.m. from Satish Dhawan Space Centre First Launch Pad.

For more information about the launch, click the button.

Launch to space PSLV | SCATSat-1
PSLV | SCATSat-1

Agency: N/A

Status: Launch Successful

Launch date: Sept. 26, 2016, 3:42 a.m. UTC

Rocket: PSLV

Launch pad: Satish Dhawan Space Centre First Launch Pad

Location: Satish Dhawan Space Centre, India

...

Latest news about this satellite

There are no fresh news available about this satellite. Check back as we update our databases every day.


Newsletter sign-up

Weekly statistics, charts and insights to help you stay on top of the space industry.